Home   Weather   Surrey   Past weeks

Flag for Canada Past Weather in Surrey, British Columbia, Canada — Yesterday and Last 2 Weeks

Now
39 °F

Chilly.


Feels Like: 32 °F
Forecast: 39 / 48 °F
Wind: 9 mph from Northeast

Location: P. Meadows Coastal Station

Current Time: Jan 20, 2017 at 6:25:29 am

Latest Report: Jan 20, 2017 at 5:00 am


Visibility: N/A

Pressure: 29.31 "Hg

Humidity: 90%

Dew Point: 36 °F

Location of SurreyLocation

Past Weather in Surrey — Graph

°F

Surrey Temperature Yesterday

Maximum temperature yesterday: 47 °F (at 10:00 am)
Minimum temperature yesterday: 40 °F (at 11:00 pm)
Average temperature yesterday: 43 °F

High & Low Weather Summary for the Past Weeks

 TemperatureHumidityPressure
High52 °F (Jan 18, 3:00 pm)100% (Jan 18, 3:00 am)30.49 "Hg (Jan 18, 3:00 am)
Low15 °F (Jan 5, 7:00 am)38% (Jan 11, 2:00 am)29.22 "Hg (Jan 18, 9:00 pm)
Average32 °F83%29.92 "Hg
* Reported Jan 5 5:00 am — Jan 20 5:00 am, Surrey, Weather by CustomWeather, © 2017

Note: Actual official high and low records may vary slightly from our data, if they occured in-between our weather recording intervals... More about our weather records

Advertising

Surrey Weather History for the Previous 24 Hours

Scroll right to see more
 ConditionsComfort  
Time TempWeatherWind HumidityBarometerVisibility
5:00 am
Fri, Jan 20
39 °FChilly.9 mph90%29.31 "HgN/A
4:00 am38 °FChilly.8 mph91%29.35 "HgN/A
3:00 am39 °FChilly.6 mph92%29.38 "HgN/A
2:00 am39 °FChilly.7 mph93%29.40 "HgN/A
1:00 am40 °FChilly.6 mph93%29.42 "HgN/A
12:00 am40 °FChilly.5 mph95%29.43 "HgN/A
11:00 pm
Thu, Jan 19
40 °FChilly.3 mph95%29.45 "HgN/A
10:00 pm40 °FQuite cool.1 mph95%29.45 "HgN/A
9:00 pm40 °FQuite cool.No wind94%29.45 "HgN/A
8:00 pm41 °FQuite cool.1 mph94%29.46 "HgN/A
7:00 pm41 °FQuite cool.5 mph94%29.45 "HgN/A
6:00 pm41 °FQuite cool.1 mph94%29.46 "HgN/A
5:00 pm41 °FQuite cool.2 mph94%29.46 "HgN/A
4:00 pm41 °FQuite cool.6 mph94%29.46 "HgN/A
3:00 pm42 °FQuite cool.6 mph93%29.46 "HgN/A
2:00 pm42 °FQuite cool.5 mph93%29.45 "HgN/A
1:00 pm44 °FQuite cool.5 mph94%29.46 "HgN/A
12:00 pm43 °FQuite cool.5 mph94%29.46 "HgN/A
11:00 am44 °FQuite cool.6 mph92%29.48 "HgN/A
10:00 am47 °FCool.7 mph81%29.47 "HgN/A
9:00 am47 °FCool.6 mph83%29.47 "HgN/A
8:00 am45 °FCool.6 mph87%29.45 "HgN/A
7:00 am43 °FQuite cool.1 mph92%29.43 "HgN/A
6:00 am44 °FQuite cool.2 mph92%29.43 "HgN/A
Weather by CustomWeather, © 2017

See weather overviewHow to use our weather pages